Regional Weather Roundup
Issued by NWS

Home | Current Version | Previous Version | Graphics & Text | Print | Product List | Glossary On
Versions: 1 2 3 4 5 6 7 8 9 10 11 12 13 14 15 16 17 18 19 20 21 22 23 24 25 26 27 28 29 30 31 32 33 34 35 36 37 38 39 40 41 42 43 44 45 46 47 48 49 50
000
ASUS43 KMPX 071201
RWRMN
WEATHER ROUNDUP FOR MINNESOTA
NATIONAL WEATHER SERVICE TWIN CITIES/CHANHASSEN MN
700 AM CDT TUE JUL 07 2015


NOTE: "FAIR" INDICATES FEW OR NO CLOUDS BELOW 12,000 FEET WITH NO
SIGNIFICANT WEATHER AND/OR OBSTRUCTIONS TO VISIBILITY. N/A MEANS
CURRENT SKY AND/OR WEATHER CONDITIONS ARE NOT AVAILABLE.

MNZ060>063-068>070-071300-
   Twin Cities Metro

CITY           SKY/WX    TMP DP  RH WIND       PRES   REMARKS
TWIN CITIES    SUNNY     55  43  63 N12G20    30.14R
6HR MIN TEMP:  54; 6HR MAX TEMP:  59;

ST PAUL        SUNNY     54  46  74 N10       30.14R
CRYSTAL        SUNNY     55  45  68 N8        30.14R
BLAINE         SUNNY     54  46  76 NW7       30.15R
LAKEVILLE      SUNNY     54  46  76 N7        30.13S
EDEN PRAIRIE   SUNNY     55  45  68 N9        30.13R
6HR MIN TEMP:  53; 6HR MAX TEMP:  58;

SOUTH ST PAUL  SUNNY     55  45  69 N8        30.13R
LAKE ELMO      FAIR      52  48  87 N5        30.15R
$$
MNZ001>005-007-008-013>017-022>024-027-028-071300-
   Northwest Minnesota

CITY           SKY/WX    TMP DP  RH WIND       PRES   REMARKS
BEMIDJI        SUNNY     47  45  93 NW5       30.17S
HALLOCK        SUNNY     45  45 100 S5        30.16S
ROSEAU         SUNNY     50  45  81 W3        30.16R
WARROAD        SUNNY     48  45  87 W5        30.16R
THIEF RVR FALL SUNNY     48  46  93 CALM      30.18S
CROOKSTON      SUNNY     48  46  93 CALM      30.19S
FOSSTON        SUNNY     45  43  93 CALM      30.19S
DETROIT LAKES  SUNNY     50  46  87 CALM      30.20S
MOORHEAD       SUNNY     46  45  93 CALM      30.20S
PARK RAPIDS    SUNNY     50  45  83 NW8       30.18R
MAHNOMEN       FAIR      44  43  97 S3        30.19R
$$
MNZ006-009>011-018-025>026-071300-
   North Central Minnesota

CITY           SKY/WX    TMP DP  RH WIND       PRES   REMARKS
BAUDETTE       SUNNY     48  45  89 W5        30.15R
FLAG ISLAND    SUNNY     52  46  82 W8        30.13S
INTL FALLS     SUNNY     49  46  90 W3        30.13R
6HR MIN TEMP:  37; 6HR MAX TEMP:  49;

WASKISH        SUNNY     55  46  71 NW5       30.16R
BIG FORK       SUNNY     46  45  93 CALM      30.15S
LONGVILLE      SUNNY     48  48 100 CALM      30.16R
GRAND RAPIDS   SUNNY     46  45  93 CALM      30.16R
CRANE LAKE     SUNNY     43  43 100 CALM      30.14R
COOK           SUNNY     46  45  93 CALM      30.14S
WALKER         FAIR      44  44  97 W3        30.17R
$$
MNZ012-019>021-037-071300-
   Northeast Minnesota

CITY           SKY/WX    TMP DP  RH WIND       PRES   REMARKS
DULUTH         PTSUNNY   53  45  74 N10       30.12S
6HR MIN TEMP:  52; 6HR MAX TEMP:  56;

ELY            SUNNY     52  46  82 NW3       30.12S
HIBBING        SUNNY     48  44  86 CALM      30.14S
DULUTH HARBOR    N/A     57  48  72 N13       30.12S
TWO HARBORS    CLOUDY    55  48  76 NW5       30.10R
SILVER BAY     MOSUNNY   55  46  71 NW3       30.09S
GRAND MARAIS     N/A     53  48  83 VRB3      30.08R
G MARAIS ARPRT SUNNY     52  45  76 NW6       30.09S
$$
MNZ029>031-032-039>041-046>048-054>057-064-071300-
   West Central Minnesota

CITY           SKY/WX    TMP DP  RH WIND       PRES   REMARKS
FERGUS FALLS   SUNNY     50  46  87 N3        30.20S
WHEATON        FAIR      48  46  93 CALM      30.22S
MORRIS         SUNNY     48  46  93 NW5       30.19R
ALEXANDRIA     SUNNY     53  49  86 N5        30.19S
ELBOW LAKE     FAIR      52  48  89 N3        30.19S
WADENA         SUNNY     46  46 100 CALM      30.18R
GLENWOOD       SUNNY     48  46  93 CALM      30.19R
APPLETON       SUNNY     50  46  87 CALM      30.20R
BENSON         SUNNY     50  46  87 CALM      30.19S
ORTONVILLE     SUNNY     52  46  82 N6        30.20R
MADISON        SUNNY     52  48  87 N5        30.20R
WILLMAR        FAIR      54  50  87 N3        30.20R
$$
MNZ033>034-036-042>043-049>051-058-059-071300-
   Central Minnesota

CITY           SKY/WX    TMP DP  RH WIND       PRES   REMARKS
ST CLOUD       SUNNY     51  48  89 NW3       30.17R
6HR MIN TEMP:  48; 6HR MAX TEMP:  53;

SAUK CENTRE    FAIR      51  46  83 N5        30.18S
PAYNESVILLE    SUNNY     48  46  90 CALM      30.18S
AITKIN         SUNNY     48  43  81 CALM      30.15R
PINE RIVER     SUNNY     50  48  93 CALM      30.19S
BRAINERD       SUNNY     52  49  89 CALM      30.16S
STAPLES        SUNNY     48  46  93 N5        30.18R
LONG PRAIRIE   FAIR      48  45  87 NW3       30.18S
LITTLE FALLS   SUNNY     50  45  81 CALM      30.17S
LITCHFIELD     SUNNY     54  52  94 N7        30.18R
BUFFALO        SUNNY     54  46  75 N8        30.17R
MAPLE LAKE     SUNNY     54  48  82 NW8       30.17R
$$
MNZ037-044-045-052-053-071300-
   East Central Minnesota

CITY           SKY/WX    TMP DP  RH WIND       PRES   REMARKS
PRINCETON      SUNNY     52  48  87 CALM      30.17R
MORA           SUNNY     50  45  81 CALM      30.17R
CAMBRIDGE      SUNNY     55  45  67 NW5       30.14R
RUSH CITY      SUNNY     52  45  77 N7        30.15R
MOOSE LAKE     PTSUNNY   48  43  81 CALM      30.13S
HINCKLEY       FAIR      52  45  76 N6        30.14R
CLOQUET        PTSUNNY   50  45  81 NW7       30.14R
MCGREGOR       SUNNY     48  45  87 CALM      30.16S
$$
MNZ071>073-080-081-089-090-097-098-071300-
   Southwest Minnesota

CITY           SKY/WX    TMP DP  RH WIND       PRES   REMARKS
MONTEVIDEO     SUNNY     54  50  87 N5          N/A
GRANITE FALLS  SUNNY     49  47  93 CALM      30.20R
CANBY          SUNNY     50  48  93 W5        30.22R
MARSHALL       SUNNY     50  45  81 NW6         N/A
REDWOOD FALLS  SUNNY     52  48  86 N6        30.17S
OLIVIA         SUNNY     46  43  87 N6        30.17R
PIPESTONE      SUNNY     52  46  82 N3        30.18S
WINDOM         SUNNY     52  46  82 N10       30.16S
WORTHINGTON    SUNNY     50  45  81 N8        30.17R
JACKSON        SUNNY     52  48  87 N5        30.16R
TRACY          SUNNY     51  49  93 NW8       30.19R
SLAYTON        SUNNY     51  49  95 CALM      30.19S
$$
MNZ065>067-074>077-082>085-091>093-071300-
   South Central Minnesota

CITY           SKY/WX    TMP DP  RH WIND       PRES   REMARKS
MANKATO        SUNNY     52  46  82 N9        30.14S
NEW ULM        MOSUNNY   52  48  87 N5        30.16R
ST JAMES         N/A     54  50  87 NW10      30.16R
FAIRMONT       SUNNY     52  45  76 N10       30.14R
GLENCOE        SUNNY     52  50  92 NW5       30.16R
FARIBAULT      SUNNY     54  50  87 NW13G18   30.13R
OWATONNA       SUNNY     52  48  87 N8        30.13S
WASECA         SUNNY     52  48  87 N10       30.14S
ALBERT LEA     SUNNY     54  48  82 N6        30.12R
$$
MNZ078>079-086>088-094>096-071300-
   Southeast Minnesota

CITY           SKY/WX    TMP DP  RH WIND       PRES   REMARKS
ROCHESTER      SUNNY     54  49  83 N10       30.10S
6HR MIN TEMP:  51; 6HR MAX TEMP:  58;

RED WING       SUNNY     54  48  82 N6        30.11R
DODGE CENTER   MOSUNNY   54  50  87 N9        30.11R
WINONA         SUNNY     55  46  71 N6        30.08S
AUSTIN         SUNNY     54  50  87 N7        30.10S
PRESTON        SUNNY     52  48  85 N8        30.09R
$$
ABBREVIATIONS USED IN REMARKS
   TC - TEMPERATURES IN CELSIUS
  WCI - WIND CHILL INDEX
   HX - HEAT INDEX
  VSB - VISIBILITY
$$


USA.gov is the U.S. government's official web portal to all federal, state and local government web resources and services.